GEFSSE_500_meanwind_222.txt.gz
Wind_Speed
11 12 11 11 10 10 10 9 9 9 9 9 9 9 9 9 9 9 10 10 10 10 10 11 11 11 10 10 10 10 10 9 9 9 9 9 8 7 7 7 7 6 6
11 11 11 10 10 10 9 8 8 8 8 8 8 8 8 9 9 9 10 10 10 10 10 10 10 9 9 9 9 9 9 9 9 9 9 9 8 8 7 7 7 7 7
11 11 11 10 10 9 9 8 7 7 7 7 7 8 9 9 9 9 9 10 10 10 10 10 9 9 9 9 9 8 9 9 9 9 9 8 8 7 7 7 7 7 7
11 11 10 10 10 10 9 8 7 7 7 7 8 8 9 9 9 9 9 9 9 9 9 9 9 9 9 9 9 9 9 9 9 9 8 8 8 8 7 7 7 7 7
11 11 10 10 9 9 9 8 7 7 7 7 8 9 9 9 9 9 9 9 9 9 9 8 9 9 8 8 8 8 9 8 8 8 8 8 8 7 7 7 7 7 7
11 11 10 10 9 9 8 8 8 7 7 7 8 8 9 9 8 8 9 8 8 8 8 8 8 8 8 8 8 8 8 8 8 7 7 7 7 7 7 7 7 6 7
12 11 11 10 10 9 9 8 8 7 7 7 7 7 7 8 8 8 8 8 8 8 8 7 7 7 7 7 8 8 8 7 7 7 7 7 7 6 6 6 6 6 6
13 12 11 11 10 9 9 9 9 8 7 6 7 6 7 8 8 8 8 8 7 7 7 7 7 7 7 7 7 7 7 7 6 6 6 7 6 6 5 5 5 5 5
13 13 12 12 11 10 9 9 8 8 8 7 7 7 7 7 8 8 8 7 7 7 7 7 7 6 6 6 6 7 6 6 6 6 6 6 5 5 4 4 4 4 4
13 13 13 13 12 10 9 9 9 8 7 7 8 8 7 6 7 7 7 7 7 7 7 7 6 6 6 6 6 6 6 6 5 5 5 5 5 4 3 3 4 3 3
14 13 13 13 12 11 10 10 9 9 8 7 7 6 7 6 6 6 6 6 7 7 7 6 6 6 6 6 6 6 6 6 5 5 5 5 5 4 4 3 3 3 3
14 13 13 13 12 12 11 11 10 9 9 7 6 6 6 5 5 5 5 5 5 5 5 5 5 6 7 7 6 6 6 5 5 4 4 4 4 3 3 3 2 3 2
15 14 13 13 12 12 12 11 10 9 9 9 7 6 5 4 4 4 4 5 4 4 4 5 6 6 6 6 6 6 5 5 4 4 3 3 3 3 3 3 2 1 1
15 14 13 13 12 12 12 11 11 10 9 9 8 7 7 5 5 5 4 5 4 5 5 5 5 5 5 5 5 5 4 3 3 3 2 2 2 2 2 2 1 1 1
15 14 13 13 13 12 12 11 11 11 10 9 8 8 7 6 5 4 3 4 4 4 4 4 4 4 3 3 3 3 3 3 3 2 2 2 2 2 2 1 1 1 1
14 14 13 13 13 12 12 11 10 10 10 9 8 7 7 6 5 4 4 3 3 2 3 3 3 2 2 1 1 1 2 2 2 2 2 2 2 2 2 2 1 1 2
14 13 13 13 13 13 12 11 10 9 9 9 9 8 7 6 5 4 3 2 2 2 1 1 1 1 1 1 1 1 1 1 2 2 2 2 2 2 3 3 3 3 3
13 13 13 13 13 12 11 11 10 9 9 9 8 8 7 7 6 5 3 2 2 1 1 1 1 0 1 1 2 2 2 2 2 2 2 3 3 3 3 4 4 4 4
13 12 13 13 12 12 11 11 11 10 9 9 8 8 7 7 6 6 4 4 3 3 3 2 2 2 2 2 2 2 2 3 3 3 3 3 4 4 5 5 6 6 6
12 12 13 13 12 12 12 11 10 10 9 9 9 8 7 7 7 6 5 4 4 3 3 2 3 3 3 3 3 3 3 3 4 4 4 5 5 6 6 7 8 8 8
12 12 12 13 13 13 12 12 11 10 10 9 9 8 8 7 6 6 5 4 4 3 3 3 4 4 5 5 4 5 4 4 5 5 5 6 6 7 7 8 9 9 9
12 11 11 12 13 13 12 12 12 11 11 10 9 8 8 7 6 6 5 5 4 4 4 5 5 5 5 6 6 6 5 6 6 6 7 7 7 8 9 10 10 11 10
12 12 12 12 13 13 12 12 12 12 11 11 11 9 8 8 8 7 6 5 5 4 5 5 5 6 6 6 6 7 7 7 7 8 8 8 9 10 10 11 10 10 11
11 12 12 12 13 13 13 11 12 12 12 11 11 11 10 9 9 7 6 6 6 6 6 6 6 6 7 6 7 8 8 8 8 9 9 9 9 11 11 11 11 11 12
11 11 12 12 12 12 12 12 12 12 12 12 12 12 11 11 10 8 8 8 7 7 7 6 6 7 7 7 8 8 9 9 9 10 10 10 11 11 12 12 12 13 12
11 11 12 12 12 12 13 13 13 13 13 13 13 12 12 11 11 10 9 9 8 8 8 8 7 7 8 8 9 9 9 10 10 11 11 11 11 12 13 13 14 14 13

GEFSSE_500_meanwind_228.txt.gz
Wind_Speed
13 13 12 12 12 11 11 10 9 8 7 7 7 7 8 8 8 8 8 9 9 9 10 10 10 10 10 10 10 11 11 10 10 10 9 9 8 8 8 7 7 7 6
14 13 13 12 11 11 10 9 9 8 7 7 7 7 7 7 7 8 8 8 9 9 9 10 10 10 10 10 11 11 10 10 10 10 9 9 9 8 8 7 7 7 7
14 13 13 12 12 11 10 9 9 8 8 8 7 8 8 8 8 8 8 9 10 10 9 10 10 10 10 10 10 10 10 9 10 9 9 9 9 9 8 8 7 7 6
14 14 13 13 12 11 10 9 9 8 8 8 8 9 9 8 8 8 8 8 9 9 9 9 10 10 9 10 10 10 9 9 9 9 9 9 9 8 8 8 8 7 7
15 14 13 13 12 11 10 9 9 9 8 8 9 8 8 9 9 8 8 7 8 9 9 9 9 9 9 9 10 10 9 8 8 8 8 8 8 8 8 8 8 8 7
15 15 14 13 12 12 11 10 9 9 8 8 8 7 8 9 8 8 8 7 8 8 8 9 8 8 9 9 9 9 8 8 7 7 7 7 7 7 8 7 7 7 7
15 15 15 14 13 12 11 10 10 9 9 8 8 8 8 9 8 8 8 7 7 8 8 8 8 8 8 9 8 8 8 7 7 7 6 7 7 7 8 8 7 7 7
16 16 15 15 14 12 11 10 10 9 9 9 9 8 8 8 8 8 8 7 7 8 8 8 8 8 8 8 8 7 7 7 6 6 6 6 7 6 7 7 6 6 6
16 16 16 15 15 13 12 12 11 10 10 9 9 8 8 8 8 7 7 7 7 8 8 8 8 8 8 7 7 8 7 7 7 6 6 6 6 6 6 6 6 6 5
17 17 17 16 15 14 13 12 12 11 10 10 8 8 8 8 7 7 7 7 7 8 8 8 8 8 8 7 7 8 8 7 7 7 6 6 5 5 5 5 5 4 4
17 17 17 16 15 14 14 12 12 12 11 10 8 7 7 7 7 7 7 7 6 7 7 7 8 8 8 7 7 7 7 6 6 6 5 5 5 4 4 3 3 3 3
17 17 17 16 16 15 15 13 13 12 12 10 9 8 8 7 7 6 6 6 6 7 7 7 7 7 7 7 6 6 6 5 5 5 4 4 4 3 3 2 1 2 2
17 17 17 16 15 15 14 14 13 12 11 10 9 8 6 7 6 6 6 6 6 6 5 5 6 6 6 6 6 5 5 4 4 4 3 3 3 2 2 1 1 1 1
16 16 16 15 14 14 13 14 13 12 11 10 9 8 7 6 6 5 5 5 5 4 4 4 5 5 5 6 5 4 4 3 2 2 2 2 2 2 1 1 1 1 1
16 15 15 15 14 13 13 13 12 11 10 9 9 8 8 6 6 5 5 4 4 4 4 4 4 3 4 4 3 3 2 2 1 1 1 1 1 1 1 0 0 0 1
16 16 16 16 15 13 12 12 11 10 10 9 8 8 7 6 5 5 5 4 3 3 2 3 3 2 2 2 1 1 1 1 1 1 1 1 0 1 1 2 2 2 3
15 16 15 15 15 14 12 11 11 10 10 9 9 8 7 6 5 4 4 3 2 2 1 2 2 2 1 1 0 0 1 1 2 2 3 2 2 3 3 2 3 4 4
15 15 15 15 15 14 13 11 10 10 9 9 9 8 7 6 6 4 4 3 2 1 1 1 1 1 1 2 2 2 2 2 2 3 3 4 3 4 3 4 3 4 5
15 14 14 15 14 14 13 11 10 9 9 8 8 7 6 6 6 5 4 3 3 1 1 1 0 1 2 2 2 3 3 3 4 4 4 4 4 4 4 5 5 5 6
15 14 13 14 14 14 12 11 9 8 8 7 7 6 5 4 5 4 3 3 3 2 1 0 1 1 2 2 2 3 4 4 4 5 5 6 6 5 6 6 6 6 6
14 14 13 13 13 12 12 11 10 8 7 7 6 6 6 4 4 3 3 2 2 2 1 1 1 2 2 3 3 4 5 5 5 5 6 6 7 7 7 7 7 7 7
13 13 13 12 12 12 12 11 10 9 8 7 7 6 6 5 4 3 2 2 2 2 1 1 2 3 3 3 4 5 5 6 6 7 7 8 8 9 9 9 8 9 9
12 12 12 12 12 12 12 12 11 10 9 8 7 7 6 5 5 4 3 2 2 2 3 3 4 4 4 4 5 5 6 6 7 8 8 9 9 10 10 9 9 10 11
10 11 11 11 11 11 11 12 11 11 11 9 8 7 6 5 5 4 4 3 3 3 4 4 4 5 6 6 6 6 6 7 7 8 9 10 10 10 10 10 10 10 11
10 10 10 10 10 11 11 11 12 12 11 10 9 8 7 6 5 5 4 4 4 4 5 6 6 6 7 7 6 6 7 7 8 8 9 10 10 11 11 11 11 12 12
9 9 9 9 10 10 11 11 11 11 12 11 10 8 8 7 7 6 5 5 5 6 6 6 6 7 8 7 7 7 8 8 9 10 11 11 11 11 11 11 12 12 12

GEFSSE_500_meanwind_234.txt.gz
Wind_Speed
12 11 11 11 11 11 11 11 10 10 10 9 9 9 9 9 9 9 8 8 8 9 9 10 9 9 9 9 10 10 10 10 9 9 10 9 9 9 8 8 7 7 6
12 11 12 12 11 11 11 11 10 10 10 10 9 9 9 9 10 10 9 9 9 9 10 9 9 10 9 10 10 10 10 10 10 9 9 9 9 9 9 8 8 7 7
12 12 12 13 12 11 11 11 10 10 10 10 10 10 10 10 10 10 10 10 10 9 9 9 9 9 9 10 10 10 9 10 10 9 9 9 9 9 9 9 9 8 8
12 12 13 12 12 11 11 11 10 10 10 10 11 10 10 10 10 9 10 11 11 10 10 10 9 9 9 10 10 9 9 9 9 9 9 9 9 8 8 9 9 9 9
13 13 13 13 12 11 11 11 10 10 10 10 10 10 11 11 10 10 10 11 10 10 10 10 10 10 10 9 9 9 9 8 8 8 9 9 8 8 8 8 8 8 9
14 14 13 13 13 12 12 11 11 11 11 10 10 10 11 11 11 11 11 11 10 10 10 10 10 10 10 9 8 8 8 8 8 8 8 8 8 7 7 7 7 7 7
14 14 14 13 14 13 13 12 11 11 11 11 11 11 10 10 10 10 11 11 10 10 10 10 9 9 9 8 8 8 8 7 7 7 7 7 7 7 7 6 6 6 7
15 15 14 14 14 13 13 13 12 11 11 11 11 10 10 10 10 10 10 10 10 10 9 9 9 9 8 8 8 8 7 7 7 6 7 7 6 6 5 5 5 6 6
15 15 15 14 14 14 14 13 13 12 11 11 10 10 10 10 10 10 10 10 10 9 9 8 8 8 7 7 8 8 7 6 6 6 6 5 5 4 4 4 4 5 5
15 15 15 15 15 14 14 13 13 12 11 10 10 10 10 10 10 10 9 9 9 8 8 8 7 7 7 7 7 7 6 6 5 5 5 5 5 4 4 3 4 4 4
15 15 15 14 14 14 13 12 13 12 11 10 10 9 9 9 9 9 9 9 8 8 8 7 7 7 6 6 6 6 5 5 5 5 4 4 4 4 3 3 3 3 2
14 15 14 14 13 13 13 12 11 11 10 10 10 9 9 9 8 8 8 8 7 7 7 6 6 6 6 5 5 5 4 4 4 4 4 4 4 3 3 2 2 2 2
14 14 14 13 13 13 12 12 10 10 10 9 9 9 8 8 7 7 7 7 6 6 6 5 5 4 4 4 4 3 3 2 2 2 3 3 3 2 2 2 1 1 1
14 14 14 14 13 12 12 11 10 10 9 8 8 8 8 7 7 6 6 6 5 4 4 3 3 2 2 2 2 1 1 2 2 2 2 2 1 1 2 1 1 1 1
15 15 14 14 13 12 11 11 11 10 9 8 8 7 7 6 5 5 5 4 4 3 3 2 2 1 1 1 0 1 1 1 1 1 1 1 1 2 2 3 3 3 2
15 15 14 14 12 12 11 11 10 10 9 9 7 6 6 5 4 4 4 3 3 3 3 2 2 2 1 0 0 1 1 1 1 2 2 2 3 3 4 3 4 4 4
15 14 14 14 13 11 11 10 10 9 8 8 7 6 6 5 5 4 2 2 2 2 1 1 1 1 1 1 1 2 2 2 2 3 3 4 4 4 4 4 5 5 6
15 15 14 14 12 11 11 10 10 9 8 7 6 6 6 4 3 2 2 2 2 1 1 1 1 1 2 2 2 3 3 4 3 4 4 5 5 5 5 5 6 6 7
14 14 14 13 12 11 10 10 10 10 9 8 6 6 5 4 3 2 2 2 2 2 2 2 2 2 3 3 3 3 4 4 5 5 5 5 5 6 6 7 7 8 8
13 14 13 13 12 11 10 10 10 10 9 9 7 7 6 5 4 3 2 2 3 3 3 2 2 2 2 3 4 4 4 5 6 6 6 6 6 7 8 8 9 9 10
12 13 13 13 13 12 11 11 11 10 10 9 8 7 7 7 6 4 3 3 3 4 4 3 2 2 3 4 5 5 5 6 6 6 7 7 8 8 8 9 10 10 11
11 12 12 12 12 12 11 11 11 10 10 10 9 8 8 7 7 6 4 4 4 4 4 4 4 4 4 5 6 6 6 7 7 7 7 7 8 9 9 10 10 11 12
11 11 11 11 11 11 11 10 11 11 10 10 9 9 8 7 6 6 5 5 5 4 4 4 4 5 6 6 7 7 8 8 9 8 8 8 9 10 10 10 11 11 11
10 10 11 11 11 11 10 10 10 10 11 10 9 9 8 7 7 6 6 6 6 5 5 5 6 6 7 8 8 8 9 10 10 10 10 10 10 11 11 12 12 12 13
9 9 10 11 11 11 10 10 10 10 10 10 10 9 8 8 8 7 7 7 6 6 6 7 8 8 8 9 9 10 10 10 10 11 11 11 11 12 12 13 14 14 14
8 8 9 10 10 10 10 10 10 10 10 10 10 9 9 9 9 8 8 8 8 8 8 9 9 9 10 11 11 11 11 11 11 11 12 13 13 14 14 14 15 15 16

GEFSSE_500_meanwind_240.txt.gz
Wind_Speed
12 12 11 11 11 10 10 11 11 11 11 11 11 11 10 11 11 11 10 10 10 10 11 12 11 11 10 11 11 11 10 10 10 10 10 9 9 9 8 7 7 7 6
11 11 10 10 11 10 10 11 11 11 11 11 11 11 11 12 12 11 11 11 11 12 11 11 11 11 10 10 11 11 10 11 11 10 10 10 9 8 8 7 7 7 6
11 11 10 11 11 10 10 11 11 12 12 11 11 11 12 12 12 12 11 11 12 12 12 11 11 11 11 10 10 10 10 10 10 10 9 9 8 8 7 7 7 7 7
12 11 11 11 11 10 10 11 11 12 12 12 11 12 12 12 12 12 12 12 12 12 12 10 11 11 11 11 10 10 10 10 9 9 8 8 7 7 7 7 7 8 8
12 11 11 11 11 11 11 12 12 12 13 12 12 12 13 13 13 12 13 13 13 12 11 10 10 11 11 11 10 10 10 9 9 9 9 8 7 7 7 7 8 8 8
12 11 11 11 11 12 12 12 12 13 13 13 13 13 13 13 13 13 13 13 13 12 11 11 11 11 11 10 10 9 9 9 9 8 8 7 7 7 7 7 8 8 8
13 12 12 12 12 12 13 13 13 13 13 13 13 13 13 14 13 13 14 13 13 12 11 11 11 11 11 10 10 9 9 8 8 8 7 6 6 6 6 7 7 7 7
13 12 12 12 12 13 13 13 13 12 12 12 13 12 12 13 13 13 13 13 12 12 11 10 10 10 9 9 9 8 8 7 7 6 6 5 6 6 6 6 6 6 6
13 13 12 13 13 13 13 13 13 12 12 12 12 12 12 12 12 12 12 12 11 11 10 10 9 9 9 9 8 7 7 6 6 5 5 4 5 5 5 5 5 5 5
13 13 12 13 13 13 12 12 12 12 11 11 11 11 11 11 11 11 11 11 10 10 10 9 8 8 8 8 7 7 6 6 5 5 4 3 4 4 4 5 4 4 4
13 12 12 12 12 11 11 11 12 12 11 11 11 11 11 11 11 10 10 10 9 9 9 9 8 8 7 7 6 6 6 5 4 4 4 3 3 3 3 4 4 4 4
13 12 12 12 11 11 12 11 11 11 11 10 10 10 9 10 10 9 9 8 8 8 8 8 7 7 6 5 5 5 4 4 3 3 3 2 2 2 2 3 4 4 4
13 13 12 12 11 12 12 12 11 11 11 10 10 10 9 8 8 7 7 7 7 6 6 6 6 5 5 4 4 4 3 3 3 2 2 2 1 0 2 2 2 3 3
13 13 12 12 12 11 11 11 11 10 10 9 10 9 8 7 7 6 6 6 5 4 4 4 3 3 3 3 3 2 2 2 1 2 1 1 0 0 1 2 1 1 2
14 14 13 12 12 11 10 10 10 9 9 9 9 8 8 7 6 5 4 4 4 3 3 2 2 2 2 2 1 1 1 1 0 1 1 0 0 1 1 1 1 1 2
14 13 13 13 12 11 10 10 9 9 8 8 8 7 7 7 5 4 3 3 3 3 3 2 1 2 1 1 1 1 1 1 1 1 1 1 1 1 2 2 2 3 3
15 14 13 13 12 11 10 10 9 8 7 7 6 6 6 6 5 4 3 3 3 3 2 2 1 1 1 1 1 1 2 2 2 2 2 2 3 3 3 3 3 4 5
14 13 13 12 11 10 9 8 8 8 7 7 6 5 5 5 5 4 3 3 2 3 3 3 2 1 0 0 0 1 3 3 3 3 3 4 3 4 4 5 5 5 6
13 12 12 11 11 10 9 8 7 7 7 7 6 6 5 5 4 4 3 3 2 2 2 3 2 3 2 1 1 2 3 3 3 4 4 4 4 5 5 6 6 7 7
12 12 11 11 11 10 9 9 8 7 7 6 6 6 5 5 4 4 2 2 2 1 2 2 3 3 3 2 2 3 4 4 4 5 5 5 5 6 7 7 8 8 8
12 12 11 11 11 9 9 8 7 7 7 6 5 5 4 4 5 4 4 3 2 2 2 2 3 3 3 4 4 4 5 5 6 6 7 7 7 8 8 8 9 9 9
10 10 10 9 10 9 8 8 8 7 7 6 5 5 4 4 4 4 4 3 2 3 3 3 3 4 5 5 5 5 5 6 7 7 7 8 8 8 8 9 9 9 10
9 9 9 9 8 9 8 8 9 8 7 6 6 6 6 5 5 5 4 3 3 4 4 4 4 5 5 6 6 6 7 7 7 7 7 8 8 9 10 10 10 10 10
8 8 9 9 8 8 8 8 8 8 8 7 7 6 6 6 5 4 5 4 4 4 4 5 5 5 6 6 7 7 8 8 8 8 9 9 9 9 10 11 11 11 12
8 8 9 9 9 8 9 8 8 8 8 8 7 7 7 6 6 6 6 5 5 5 5 5 6 6 7 7 8 8 9 10 10 10 10 10 11 11 11 11 12 13 13
7 8 8 8 8 8 8 8 8 9 9 8 8 8 8 8 7 7 6 6 5 5 6 7 7 7 8 9 9 10 11 11 11 11 11 11 11 12 12 13 13 14 14